{"data":{"norad_id":67378,"epoch":"2026-05-25T00:03:19.965024Z","epoch_age_seconds":77955,"freshness":"FRESH","line1":"1 67378U 26004R   26145.00231441  .00000544  00000+0  67783-4 0  9993","line2":"2 67378  97.8006 143.9041 0002853 173.0980 187.0275 14.86315876 19831","mean_motion":14.86315876,"eccentricity":0.0002853,"inclination_deg":97.8006,"raan_deg":143.9041,"arg_perigee_deg":173.098,"mean_anomaly_deg":187.0275,"bstar":6.7783e-5,"rev_number":1983,"period_min":96.883847051096,"perigee_km":607.46505233471,"apogee_km":611.4521743917,"semimajor_km":6987.5956133632,"source":"CELESTRAK","updated_at":"2026-05-25T13:38:06.930820Z"}}